CAPE
0 0 0 0 0 0 0 0 0 0 0 0 0 0 0 0 0 0 0 0 0 0 0 0 0 0 0 0 0 0 0 0 0 0 0 0 0 49 202 277 260 222 449
0 0 0 0 0 0 0 0 0 0 0 0 0 0 0 0 0 0 0 0 0 0 0 0 0 0 0 0 0 0 0 0 0 0 1 0 0 0 0 49 140 282 299
0 0 0 0 0 0 0 0 0 0 0 0 0 0 0 0 0 0 0 0 0 0 0 0 0 0 0 0 0 0 0 0 0 0 1 2 0 0 0 0 0 27 20
0 0 0 0 0 0 0 0 0 0 0 0 0 0 0 0 0 0 0 0 0 0 0 0 0 0 0 2 3 1 1 1 1 0 0 1 1 11 0 0 0 0 0
0 0 0 0 0 0 0 0 0 0 0 0 0 0 0 0 0 0 0 0 0 0 0 0 0 0 0 3 1 3 4 1 2 6 8 1 0 0 9 1 0 0 0
0 0 0 0 0 0 0 0 0 0 0 0 0 0 0 0 0 0 0 0 0 0 0 0 0 0 0 0 0 6 5 5 1 2 2 6 4 3 6 5 1 0 0
0 0 0 0 0 0 0 0 0 0 0 0 0 0 0 0 0 0 0 0 0 0 0 0 0 0 0 0 1 2 6 5 7 4 5 5 5 8 10 8 4 1 0
0 0 0 0 0 0 0 0 0 0 0 0 0 0 0 0 0 0 0 0 0 0 0 0 0 0 0 0 0 7 0 1 2 3 3 4 2 7 9 9 15 6 0
0 0 0 0 0 0 0 0 0 0 0 0 0 0 0 0 0 0 0 0 0 0 0 0 0 0 0 0 0 0 0 0 0 2 3 8 10 4 4 9 11 14 9
0 0 0 0 0 0 0 0 0 0 0 0 0 0 0 0 0 0 0 0 0 0 0 0 0 0 0 0 0 0 0 0 0 0 1 3 2 1 1 0 6 6 9
0 0 0 0 0 0 0 0 0 0 0 0 0 0 0 0 0 0 0 0 0 0 0 0 0 0 0 0 1 0 0 1 1 0 0 1 0 0 10 11 12 19 18
0 0 0 0 0 0 0 0 0 0 0 0 0 0 0 0 0 0 0 0 0 0 0 0 0 0 0 0 1 0 0 1 3 3 2 2 4 1 0 6 7 6 9
0 0 0 0 0 0 0 0 0 0 0 0 0 0 0 0 0 0 0 0 0 0 0 0 0 0 1 0 0 0 0 0 4 4 4 3 12 6 1 14 10 7 7
0 0 0 0 0 0 0 0 0 0 0 0 0 0 0 0 0 0 0 0 0 0 0 0 0 0 0 0 0 0 0 0 2 3 4 4 12 12 6 9 5 3 5
0 0 0 0 0 0 0 0 0 0 0 0 0 0 0 0 0 0 0 0 0 0 0 0 0 0 0 1 0 0 0 1 0 0 1 7 6 7 11 15 7 3 4
0 0 0 0 0 0 0 0 0 0 0 0 0 0 0 0 0 0 0 0 0 0 0 0 0 0 3 4 1 0 0 0 0 0 0 0 1 0 3 8 11 9 4
0 0 0 0 0 0 0 0 0 0 0 0 0 0 0 0 0 0 0 0 0 0 0 0 0 0 0 4 2 0 0 0 0 0 0 0 0 0 0 0 1 2 8
0 0 0 0 0 0 0 0 0 0 0 0 0 0 0 0 0 0 0 0 0 0 0 0 0 0 0 3 1 0 0 0 0 0 0 0 0 0 0 0 0 0 0
0 0 0 0 0 0 0 0 0 0 0 0 0 0 0 0 0 0 0 0 0 0 0 0 0 0 0 5 2 0 0 0 0 0 0 0 0 7 7 0 0 0 0
0 0 0 0 0 0 0 0 0 0 0 0 0 0 0 0 0 0 0 0 0 0 0 0 0 0 0 3 5 0 0 0 0 0 0 7 2 7 7 0 0 0 0
0 0 0 0 0 0 0 0 0 0 0 0 0 0 0 0 0 0 0 0 0 0 0 0 0 0 0 0 5 8 0 0 0 0 0 0 7 10 8 6 0 0 0
0 0 0 0 0 0 0 0 0 0 0 0 0 0 0 0 0 0 0 0 0 0 0 0 0 0 0 1 2 4 3 0 0 0 0 0 7 9 10 1 7 6 0
0 0 0 0 0 0 0 0 0 0 0 0 0 0 0 0 0 0 0 0 0 0 0 0 0 0 0 0 0 3 0 0 0 0 0 3 3 4 2 7 4 1 0
1 0 1 1 1 0 0 0 0 0 0 0 0 0 0 0 0 0 0 0 0 0 0 0 0 0 0 0 0 0 0 0 0 0 0 0 5 0 0 0 0 0 0
0 0 0 1 1 0 0 0 0 0 0 0 0 0 0 0 0 0 0 0 0 0 0 0 0 0 0 0 1 0 0 0 0 0 0 0 0 0 0 0 0 0 0
0 0 0 0 0 0 0 0 0 0 0 0 0 0 0 0 0 0 0 0 0 1 0 0 0 0 1 1 2 2 2 1 1 0 0 0 0 0 0 0 0 0 0
CIN
-0 -0 -0 -0 -0 -0 -0 -0 -0 -0 -0 -0 -0 -0 -0 -0 -0 -0 -0 -0 -0 -0 -0 -0 -0 -0 -0 -0 -0 -0 -0 -0 -0 -0 -0 -0 -0 -187 -121 -91 -84 -92 -90
-0 -0 -0 -0 -0 -0 -0 -0 -0 -0 -0 -0 -0 -0 -0 -0 -0 -0 -0 -0 -0 -0 -0 -0 -0 -0 -0 -0 -0 -0 -0 -0 -0 -0 -0 -0 -0 -0 -0 -218 -189 -113 -83
-0 -0 -0 -0 -0 -0 -0 -0 -0 -0 -0 -0 -0 -0 -0 -0 -0 -0 -0 -0 -0 -0 -0 -0 -0 -0 -0 -0 -0 -0 -0 -0 -0 -0 -0 -0 -0 -0 -0 -0 -0 -122 -116
-0 -0 -0 -0 -0 -0 -0 -0 -0 -0 -0 -0 -0 -0 -0 -0 -0 -0 -0 -0 -0 -0 -0 -0 -0 -0 -0 -2 -0 -1 -0 -2 -0 -0 -0 -0 -0 -0 -0 -0 -0 -0 -0
-0 -0 -0 -0 -0 -0 -0 -0 -0 -0 -0 -0 -0 -0 -0 -0 -0 -0 -0 -0 -0 -0 -0 -0 -0 -0 -0 -1 -1 -2 -1 -0 -0 -0 -0 -0 -0 -0 -0 -0 -0 -0 -0
-0 -0 -0 -0 -0 -0 -0 -0 -0 -0 -0 -0 -0 -0 -0 -0 -0 -0 -0 -0 -0 -0 -0 -0 -0 -0 -0 -0 -0 -3 -3 -0 -0 -0 -0 -0 -0 -0 -0 -0 -0 -0 -0
-0 -0 -0 -0 -0 -0 -0 -0 -0 -0 -0 -0 -0 -0 -0 -0 -0 -0 -0 -0 -0 -0 -0 -0 -0 -0 -0 -0 -4 -1 -0 -0 -0 -0 -0 -0 -0 -0 -0 -0 -0 -0 -0
-0 -0 -0 -0 -0 -0 -0 -0 -0 -0 -0 -0 -0 -0 -0 -0 -0 -0 -0 -0 -0 -0 -0 -0 -0 -0 -0 -0 -0 -0 -0 -0 -0 -0 -0 -0 -0 -0 -0 -0 -0 -0 -0
-0 -0 -0 -0 -0 -0 -0 -0 -0 -0 -0 -0 -0 -0 -0 -0 -0 -0 -0 -0 -0 -0 -0 -0 -0 -0 -0 -0 -0 -0 -0 -0 -0 -0 -0 -0 -0 -0 -0 -0 -0 -0 -0
-0 -0 -0 -0 -0 -0 -0 -0 -0 -0 -0 -0 -0 -0 -0 -0 -0 -0 -0 -0 -0 -0 -0 -0 -0 -0 -0 -0 -1 -0 -0 -0 -0 -0 -0 -0 -0 -0 -0 -0 -0 -0 -0
-0 -0 -0 -0 -0 -0 -0 -0 -0 -0 -0 -0 -0 -0 -0 -0 -0 -0 -0 -0 -0 -0 -0 -0 -0 -0 -0 -0 -0 -0 -0 -0 -0 -0 -0 -0 -0 -0 -0 -0 -0 -0 -0
-0 -0 -0 -0 -0 -0 -0 -0 -0 -0 -0 -0 -0 -0 -0 -0 -0 -0 -0 -0 -0 -0 -0 -0 -0 -0 -0 -0 -0 -0 -0 -0 -0 -0 -0 -0 -0 -0 -0 -0 -0 -0 -0
-0 -0 -0 -0 -0 -0 -0 -0 -0 -0 -0 -0 -0 -0 -0 -0 -0 -0 -0 -0 -0 -0 -0 -0 -0 -0 -0 -0 -0 -0 -0 -0 -0 -0 -0 -0 -0 -0 -0 -0 -0 -0 -0
-0 -0 -0 -0 -0 -0 -0 -0 -0 -0 -0 -0 -0 -0 -0 -0 -0 -0 -0 -0 -0 -0 -0 -0 -0 -0 -0 -0 -0 -0 -0 -0 -0 -0 -0 -0 -0 -0 -0 -0 -0 -0 -0
-0 -0 -0 -0 -0 -0 -0 -0 -0 -0 -0 -0 -0 -0 -0 -0 -0 -0 -0 -0 -0 -0 -0 -0 -0 -0 -1 -0 -0 -0 -0 -0 -0 -0 -0 -0 -0 -0 -0 -0 -0 -0 -0
-0 -0 -0 -0 -0 -0 -0 -0 -0 -0 -0 -0 -0 -0 -0 -0 -0 -0 -0 -0 -0 -0 -0 -0 -0 -0 -0 -0 -0 -0 -0 -0 -0 -0 -0 -0 -0 -0 -0 -0 -0 -0 -0
-0 -0 -0 -0 -0 -0 -0 -0 -0 -0 -0 -0 -0 -0 -0 -0 -0 -0 -0 -0 -0 -0 -0 -0 -0 -0 -0 -0 -0 -0 -0 -0 -0 -0 -0 -0 -0 -0 -0 -0 -0 -0 -0
-0 -0 -0 -0 -0 -0 -0 -0 -0 -0 -0 -0 -0 -0 -0 -0 -0 -0 -0 -0 -0 -0 -0 -0 -0 -0 -0 -0 -0 -0 -0 -0 -0 -0 -0 -0 -0 -0 -0 -0 -0 -0 -0
-0 -0 -0 -0 -0 -0 -0 -0 -0 -0 -0 -0 -0 -0 -0 -0 -0 -0 -0 -0 -0 -0 -0 -0 -0 -0 -0 -0 -0 -0 -0 -0 -0 -0 -0 -0 -0 -1 -0 -0 -0 -0 -0
-0 -0 -0 -0 -0 -0 -0 -0 -0 -0 -0 -0 -0 -0 -0 -0 -0 -0 -0 -0 -0 -0 -0 -0 -0 -0 -0 -0 -0 -0 -0 -0 -0 -0 -0 -0 -4 -0 -0 -0 -0 -0 -0
-0 -0 -0 -0 -0 -0 -0 -0 -0 -0 -0 -0 -0 -0 -0 -0 -0 -0 -0 -0 -0 -0 -0 -0 -0 -0 -0 -0 -0 -0 -0 -0 -0 -0 -0 -0 -0 -0 -0 -0 -0 -1 -0
-0 -0 -0 -0 -0 -0 -0 -0 -0 -0 -0 -0 -0 -0 -0 -0 -0 -0 -0 -0 -0 -0 -0 -0 -0 -0 -0 -0 -0 -0 -0 -0 -0 -0 -0 -0 -0 -0 -0 -0 -0 -0 -0
-0 -0 -0 -0 -0 -0 -0 -0 -0 -0 -0 -0 -0 -0 -0 -0 -0 -0 -0 -0 -0 -0 -0 -0 -0 -0 -0 -0 -0 -0 -0 -0 -0 -0 -0 -0 -0 -0 -0 -0 -0 -0 -0
-0 -0 -0 -0 -0 -0 -0 -0 -0 -0 -0 -0 -0 -0 -0 -0 -0 -0 -0 -0 -0 -0 -0 -0 -0 -0 -0 -0 -0 -0 -0 -0 -0 -0 -0 -0 -0 -0 -0 -0 -0 -0 -0
-0 -0 -0 -0 -0 -0 -0 -0 -0 -0 -0 -0 -0 -0 -0 -0 -0 -0 -0 -0 -0 -0 -0 -0 -0 -0 -0 -0 -0 -0 -0 -0 -0 -0 -0 -0 -0 -0 -0 -0 -0 -0 -0
-0 -0 -0 -0 -0 -0 -0 -0 -0 -0 -0 -0 -0 -0 -0 -0 -0 -0 -0 -0 -0 -0 -0 -0 -0 -0 -1 -0 -0 -0 -0 -0 -0 -0 -0 -0 -0 -0 -0 -0 -0 -0 -0
Wind_Speed
9 10 9 9 9 7 8 7 9 7 5 4 3 4 4 4 6 7 12 13 11 11 10 7 8 8 7 8 10 7 10 5 11 4 5 5 6 7 7 6 7 6 9
13 12 9 7 7 7 7 8 8 7 6 4 2 3 3 4 4 6 10 11 11 11 10 8 7 8 6 9 9 10 6 4 8 5 4 4 5 4 4 4 5 5 3
17 12 11 8 7 7 7 9 8 7 6 6 3 3 4 4 5 6 6 8 9 9 8 8 6 6 5 5 6 8 9 6 3 7 3 4 3 7 4 2 3 3 2
13 11 11 7 7 6 7 9 8 8 7 7 6 7 5 4 3 3 4 6 7 9 8 7 7 5 5 7 7 7 7 7 7 6 5 6 6 4 7 4 4 5 5
15 14 13 10 7 7 7 8 9 8 7 7 6 5 7 5 3 4 5 5 5 8 9 8 6 7 6 7 8 8 7 5 5 6 6 7 6 8 5 10 5 8 6
15 12 10 10 8 8 8 8 10 8 7 7 7 8 7 6 4 5 4 3 4 5 8 8 8 8 8 7 6 7 8 7 7 6 7 6 5 7 6 7 13 15 8
14 14 13 10 9 9 8 9 9 7 7 8 7 7 7 6 6 5 4 5 4 5 7 7 8 7 8 8 7 8 8 8 7 8 7 7 7 7 8 9 11 13 11
12 13 12 10 9 10 10 9 8 7 7 7 6 6 6 4 3 5 4 4 3 4 6 6 8 9 9 9 8 7 7 8 7 9 8 6 7 8 7 7 10 14 13
7 7 6 6 8 10 9 9 8 7 8 6 5 6 5 6 4 6 5 3 4 6 7 7 9 9 9 9 7 7 8 8 8 8 8 7 6 8 8 7 8 9 13
12 12 9 8 8 8 9 8 8 8 6 6 6 5 5 5 5 5 6 6 5 5 7 8 9 8 8 9 8 7 9 9 8 7 10 9 7 9 8 8 8 8 11
16 18 16 13 14 12 12 11 9 9 6 5 6 6 6 5 4 4 5 6 6 7 8 9 9 8 8 8 8 8 10 10 10 10 10 11 11 7 7 7 8 7 9
16 15 14 12 11 11 10 9 10 8 7 6 7 6 6 5 4 6 6 6 7 7 8 8 8 8 8 9 10 10 10 11 12 12 11 12 10 10 10 7 9 9 11
12 13 14 13 12 11 9 9 8 10 9 8 8 8 7 5 4 6 6 7 6 7 8 8 8 8 9 9 10 10 10 10 11 11 11 12 13 10 9 9 9 9 10
17 13 13 13 12 11 10 8 10 11 10 9 8 7 6 4 5 7 6 7 7 7 7 8 7 8 9 10 9 10 9 10 10 12 12 11 11 11 11 9 10 11 10
14 15 17 14 13 12 11 11 10 10 9 10 8 6 5 4 6 7 6 7 8 7 6 7 7 7 7 8 9 9 10 10 11 11 12 12 19 19 16 9 10 12 11
17 17 15 14 13 13 11 11 10 9 9 8 7 4 6 6 5 6 6 5 7 6 6 7 7 7 8 17 18 12 8 10 9 9 11 10 14 16 21 20 20 18 14
16 15 15 14 12 12 12 11 11 10 9 8 6 6 5 5 4 6 5 4 3 2 6 6 6 6 5 17 17 15 6 6 7 7 6 9 9 14 12 16 19 19 23
13 12 11 12 11 11 12 12 10 9 9 8 6 5 6 5 5 6 4 3 2 3 3 5 5 6 5 18 15 15 5 5 6 5 6 5 11 16 15 11 12 13 13
8 9 11 13 13 12 12 12 10 9 9 6 6 5 5 6 5 4 5 3 4 4 3 3 6 6 7 17 16 9 4 4 6 7 9 6 11 25 24 12 12 12 13
11 14 14 13 13 11 11 11 10 9 8 7 6 6 5 5 5 4 5 3 5 4 3 5 6 11 7 14 15 10 3 6 6 6 7 21 17 25 26 12 12 13 13
12 11 11 11 12 11 11 10 10 9 7 6 5 5 5 5 4 2 2 7 6 6 3 4 3 4 9 7 16 17 5 4 5 6 7 8 23 24 25 23 14 16 11
10 9 11 10 8 9 11 10 9 7 7 6 6 5 4 4 5 6 5 6 7 6 3 3 3 4 5 12 16 17 18 15 7 7 5 9 21 22 24 17 25 23 12
8 7 10 10 8 9 9 10 9 9 9 8 7 7 7 7 5 5 4 5 5 5 4 3 2 4 4 4 15 17 18 19 7 7 14 19 20 20 14 24 24 16 11
9 8 11 11 10 9 9 10 11 10 10 9 8 9 8 7 5 5 4 4 4 4 4 4 3 3 4 3 3 5 6 10 9 7 7 7 10 9 9 10 13 10 10
9 9 9 10 10 10 10 11 11 11 10 9 8 8 6 7 6 5 4 5 1 5 4 2 2 1 3 4 11 8 4 6 8 4 6 7 8 9 9 9 11 10 11
9 8 9 9 10 11 11 11 11 11 10 10 8 6 6 6 5 6 6 11 10 12 11 9 7 3 11 13 14 16 16 16 15 7 7 7 7 9 9 10 9 10 11
Wind_Direction
143 134 131 121 109 103 97 78 71 41 41 26 37 45 50 42 44 44 41 55 41 42 36 31 21 14 17 9 4 347 353 332 356 323 337 297 259 245 227 217 225 237 243
148 144 134 109 104 128 113 95 79 60 42 38 46 91 114 65 64 49 48 54 48 40 40 28 19 13 13 12 5 10 353 328 4 344 289 318 330 356 300 262 242 239 263
154 150 135 130 138 128 118 104 90 72 59 53 48 49 69 50 40 34 46 45 50 43 33 28 19 10 17 8 353 3 1 351 325 341 295 328 311 329 319 320 313 331 337
152 142 138 146 142 136 110 98 89 79 65 53 58 71 84 98 50 50 46 43 39 37 28 20 12 9 16 14 1 4 352 349 342 341 356 336 301 312 311 320 321 10 355
154 156 155 153 142 123 113 96 88 74 65 62 64 68 75 74 58 53 52 44 34 33 24 19 12 14 15 15 7 359 353 349 343 337 331 316 318 268 274 293 308 331 334
160 147 142 138 116 110 98 96 84 72 63 60 57 67 76 68 62 44 46 27 31 36 27 18 18 20 17 7 0 2 5 2 354 346 338 333 322 324 307 300 305 299 302
142 136 139 136 128 122 116 98 94 87 82 72 64 67 74 70 69 54 44 36 37 35 25 25 33 23 12 2 1 17 16 10 7 1 343 344 332 321 306 297 296 285 300
131 145 152 149 137 132 112 103 104 106 91 83 74 67 72 68 56 51 41 33 40 47 24 29 34 29 16 10 6 29 13 13 9 9 356 340 332 329 319 317 315 300 287
78 71 92 110 121 116 107 108 105 92 92 88 79 76 65 67 49 50 51 30 14 52 41 39 35 29 20 12 5 33 18 21 7 13 355 352 342 329 317 313 307 292 298
128 137 132 142 127 107 111 113 109 108 114 116 102 87 71 65 52 39 50 41 17 41 41 50 33 27 25 17 30 36 22 22 19 13 358 9 345 331 320 310 299 294 296
161 173 172 151 148 133 135 136 125 128 123 111 107 97 80 57 51 50 50 35 27 42 40 44 37 24 21 23 41 34 29 24 22 11 7 356 341 329 325 323 311 317 307
176 167 154 148 146 143 138 137 140 130 122 107 98 90 81 58 48 65 56 41 38 51 40 37 39 21 19 32 39 36 28 22 20 9 3 355 344 351 340 323 343 325 317
159 155 151 158 150 150 148 148 137 108 107 103 97 86 78 55 66 71 66 50 42 53 38 33 35 22 39 42 46 38 33 24 17 12 1 353 354 355 343 350 345 338 326
161 154 149 155 151 146 148 147 115 110 112 103 97 87 78 95 75 79 59 58 54 45 45 32 28 29 59 46 44 44 34 28 18 19 11 354 4 2 351 4 353 349 348
157 167 164 156 150 140 137 126 112 107 111 104 97 102 105 85 82 80 73 54 56 46 45 41 33 36 48 62 48 41 39 31 21 12 12 3 16 13 10 11 2 2 9
176 174 157 152 147 142 134 126 117 115 110 109 117 114 95 91 90 83 74 71 68 51 34 22 23 30 50 56 57 50 41 31 11 8 7 359 6 14 15 15 17 23 17
168 166 163 156 147 142 134 128 125 125 121 119 118 110 116 101 91 88 94 80 58 34 48 28 1 2 56 57 57 49 34 21 7 356 351 4 2 24 13 9 12 20 19
162 159 143 127 126 124 119 119 118 121 120 125 120 113 107 111 107 103 120 109 96 81 53 16 7 3 43 61 57 46 19 4 357 347 335 354 10 28 26 8 15 12 14
115 119 123 128 126 128 130 122 126 126 125 122 119 126 127 118 118 115 138 144 93 65 43 9 10 9 354 65 55 41 15 359 357 354 352 39 30 28 32 21 20 16 13
125 131 129 123 123 127 129 130 134 130 128 136 143 135 133 136 141 173 156 146 120 99 64 49 16 19 359 38 59 50 24 29 11 5 5 23 33 37 31 24 26 22 5
126 126 124 129 129 133 133 130 135 139 143 134 126 131 142 147 154 133 91 133 125 106 66 47 332 353 9 11 46 60 44 42 29 24 26 18 29 31 35 32 31 29 3
122 124 121 120 120 128 130 138 137 137 133 127 129 126 108 99 97 89 74 87 101 92 64 26 0 2 358 29 41 53 57 56 47 29 28 28 35 30 33 34 30 25 14
132 132 130 129 136 139 142 138 146 145 140 139 130 118 102 100 93 91 81 88 95 98 91 59 11 342 340 353 44 51 58 53 46 44 41 42 36 32 21 32 26 19 18
146 145 145 147 147 148 152 148 152 150 149 142 129 128 118 109 96 93 90 96 95 112 104 80 28 347 342 354 25 49 50 49 47 33 27 20 34 28 23 25 25 19 18
150 157 162 155 154 156 157 158 158 158 157 144 141 140 132 122 114 100 106 107 128 130 133 170 173 73 352 28 63 62 82 64 59 43 44 35 28 30 26 25 25 19 15
155 163 164 158 160 160 160 164 166 166 162 155 150 145 139 133 130 127 121 117 120 126 127 110 83 10 63 56 65 57 62 62 57 51 44 34 27 30 24 21 20 18 15